Latest Weather Observations for Geraldton Airport

IDW60801

Issued at 3:03 pm WST Saturday 30 July 2016 (issued every 30 minutes, with the page automatically refreshed every 10 minutes)

About weather observations | Map of weather stations | Latest weather observations for WA | Other Formats
Station Details ID: 008315 Name: GERALDTON AIRPORT Lat: -28.80 Lon: 114.70 Height: 29.7 m
Data from the previous 72 hours. | See also: Recent months at Geraldton Airport
Date/Time
WST
Temp
°C
App
Temp
°C
Dew
Point
°C
Rel
Hum
%
Delta-T
°C
Wind Press
QNH
hPa
Press
MSL
hPa
Rain since
9am
mm
Dir  Spd
km/h
Gust
km/h
Spd
kts
Gust
kts
30/03:00pm 19.5 16.3 11.9 61 4.2 WSW 20 22 11 12 1017.5 1017.5 0.0
30/02:30pm 19.7 17.4 11.6 59 4.5 W 15 20 8 11 1017.5 - 0.0
30/02:00pm 19.6 17.6 12.7 64 3.9 SW 15 19 8 10 1017.6 - 0.0
30/01:30pm 19.9 18.8 13.0 64 3.9 SSW 11 17 6 9 1017.7 - 0.0
30/01:00pm 19.8 17.9 13.1 65 3.8 SW 15 20 8 11 1018.0 - 0.0
30/12:30pm 19.8 17.6 13.2 65 3.8 SW 17 22 9 12 1018.3 - 0.0
30/12:00pm 19.8 17.7 13.7 68 3.5 SSW 17 24 9 13 1018.7 1018.8 0.0
30/11:30am 19.3 17.7 13.9 71 3.1 SSW 15 19 8 10 1019.2 - 0.0
30/11:00am 19.4 19.3 15.0 75 2.6 SSE 9 15 5 8 1019.3 - 0.0
30/10:30am 19.0 18.3 15.5 80 2.1 SE 13 20 7 11 1019.6 - 0.0
30/10:00am 18.6 18.1 15.9 84 1.6 SE 13 19 7 10 1019.6 - 0.0
30/09:30am 18.3 17.8 15.9 86 1.4 SE 13 19 7 10 1019.5 - 0.0
30/09:00am 17.4 18.0 15.9 91 0.9 ESE 7 9 4 5 1019.2 1019.3 4.2
30/08:30am 15.9 16.5 15.2 96 0.4 SE 6 7 3 4 1019.0 - 4.2
30/08:00am 14.0 14.7 13.3 96 0.4 SSW 2 6 1 3 1018.6 - 4.2
30/07:30am 13.1 13.2 12.6 97 0.3 W 4 7 2 4 1018.4 - 4.2
30/07:00am 14.2 15.3 13.5 96 0.4 CALM 0 0 0 0 1018.2 - 4.2
30/06:30am 14.6 15.4 13.8 95 0.4 SW 2 7 1 4 1017.7 - 4.2
30/06:00am 16.2 16.2 15.1 93 0.6 SSW 9 11 5 6 1017.4 1017.4 4.2
30/05:30am 16.5 15.7 15.1 91 0.8 SW 13 17 7 9 1017.4 - 4.2
30/05:00am 15.5 15.7 14.3 92 0.7 SW 6 7 3 4 1017.2 - 4.2
30/04:30am 15.8 16.1 14.6 93 0.7 SW 6 9 3 5 1017.1 - 4.2
30/04:00am 16.3 16.1 14.6 90 1.0 SW 9 11 5 6 1017.4 - 4.2
30/03:30am 17.0 17.1 15.5 91 0.9 SW 9 9 5 5 1017.4 - 4.2
30/03:00am 17.3 17.1 15.6 90 1.0 SW 11 11 6 6 1017.6 1017.7 4.2
30/02:30am 17.7 17.5 15.7 88 1.2 SW 11 15 6 8 1017.4 - 4.2
30/02:00am 17.8 16.8 15.7 87 1.2 SW 15 19 8 10 1017.7 - 4.2
30/01:30am 17.8 17.3 15.8 88 1.2 SW 13 19 7 10 1017.8 - 4.2
30/01:00am 18.1 17.6 16.0 87 1.2 SW 13 19 7 10 1017.7 - 4.2
30/12:30am 18.4 18.3 16.1 86 1.4 SW 11 15 6 8 1017.4 - 4.2
30/12:00am 19.2 19.2 18.2 94 0.6 WSW 15 20 8 11 1017.5 1017.5 4.2
 
Date/Time
WST
Temp
°C
App
Temp
°C
Dew
Point
°C
Rel
Hum
%
Delta-T
°C
Wind Press
QNH
hPa
Press
MSL
hPa
Rain since
9am
mm
Dir  Spd
km/h
Gust
km/h
Spd
kts
Gust
kts
29/11:30pm 19.5 21.0 19.0 97 0.3 WNW 9 15 5 8 1017.4 - 4.2
29/11:00pm 19.0 20.4 18.7 98 0.2 NNW 9 11 5 6 1017.7 - 4.2
29/10:47pm 18.3 19.3 17.7 96 0.4 N 9 11 5 6 1017.6 - 4.2
29/10:30pm 18.1 19.0 17.5 96 0.4 N 9 11 5 6 1017.6 - 4.2
29/10:17pm 18.0 19.3 17.2 95 0.5 NNW 6 7 3 4 1017.6 - 4.2
29/10:06pm 17.9 19.2 17.1 95 0.5 WNW 6 7 3 4 1017.8 - 4.2
29/10:00pm 17.9 18.9 16.9 94 0.6 W 7 11 4 6 1017.7 - 4.2
29/09:55pm 17.9 18.5 16.9 94 0.6 WSW 9 15 5 8 1017.6 - 4.2
29/09:54pm 17.9 18.2 17.0 94 0.5 WSW 11 15 6 8 1017.6 - 4.2
29/09:50pm 17.9 17.8 16.9 94 0.6 WSW 13 19 7 10 1017.7 - 4.2
29/09:30pm 18.7 17.8 18.1 96 0.4 W 20 26 11 14 1017.9 - 3.8
29/09:00pm 19.1 19.2 18.3 95 0.5 NNW 15 20 8 11 1017.6 1017.7 2.8
29/08:49pm 19.2 18.9 18.3 94 0.6 NNW 17 20 9 11 1017.5 - 2.0
29/08:30pm 19.4 19.1 18.2 93 0.7 NNW 17 26 9 14 1017.5 - 1.4
29/08:00pm 19.2 18.4 18.1 93 0.7 NNW 19 24 10 13 1017.5 - 1.4
29/07:51pm 19.1 18.8 18.2 94 0.6 NNW 17 24 9 13 1017.4 - 1.4
29/07:38pm 19.1 18.3 18.1 94 0.6 NNW 19 24 10 13 1017.4 - 1.4
29/07:32pm 19.2 18.3 18.2 94 0.6 NW 20 30 11 16 1017.3 - 1.4
29/07:30pm 19.2 18.3 18.2 94 0.6 NW 20 30 11 16 1017.4 - 1.2
29/07:00pm 19.7 18.2 17.8 89 1.2 NW 22 32 12 17 1017.2 - 0.6
29/06:30pm 20.3 18.9 16.9 81 2.1 NNW 20 28 11 15 1016.7 - 0.0
29/06:00pm 19.9 18.6 16.8 82 1.9 NNW 19 28 10 15 1016.3 1016.3 0.0
29/05:30pm 20.5 18.2 16.6 78 2.4 NNW 24 33 13 18 1016.3 - 0.0
29/05:00pm 21.3 18.8 16.2 72 3.1 NNW 24 32 13 17 1016.1 - 0.0
29/04:30pm 21.5 18.6 16.2 72 3.2 NNW 26 33 14 18 1016.1 - 0.0
29/04:00pm 21.4 17.4 15.2 68 3.7 NW 30 41 16 22 1016.1 - 0.0
29/03:30pm 22.1 16.9 13.5 58 5.0 NW 33 46 18 25 1015.9 - 0.0
29/03:00pm 22.0 17.4 12.3 54 5.5 NW 28 39 15 21 1015.8 1015.8 0.0
29/02:30pm 22.4 16.6 10.8 47 6.4 NW 32 43 17 23 1016.0 - 0.0
29/02:00pm 22.6 16.7 7.7 38 7.8 NNW 28 35 15 19 1015.4 - 0.0
29/01:30pm 22.8 16.5 7.4 37 8.0 NW 30 43 16 23 1015.7 - 0.0
29/01:00pm 24.1 16.7 4.9 29 9.6 NW 33 46 18 25 1015.9 - 0.0
29/12:30pm 24.1 17.8 5.8 30 9.3 NNW 28 39 15 21 1016.1 - 0.0
29/12:00pm 24.1 18.3 6.2 31 9.2 NNW 26 41 14 22 1016.5 1016.5 0.0
29/11:30am 23.2 17.6 5.2 31 9.0 NNW 24 35 13 19 1016.9 - 0.0
29/11:00am 22.6 18.6 9.0 42 7.3 NNW 20 28 11 15 1017.1 - 0.0
29/10:30am 21.2 20.2 13.4 61 4.5 N 11 13 6 7 1017.4 - 0.0
29/10:00am 18.8 15.7 12.3 66 3.6 N 20 26 11 14 1017.3 - 0.0
29/09:30am 17.1 13.9 11.4 69 3.1 NNE 19 22 10 12 1017.3 - 0.0
29/09:00am 15.1 11.4 10.1 72 2.6 NNE 20 26 11 14 1017.4 1017.4 0.0
29/08:30am 14.2 10.5 10.0 76 2.2 N 20 26 11 14 1017.5 - 0.0
29/08:00am 13.6 9.4 9.7 77 2.0 NNE 22 28 12 15 1017.1 - 0.0
29/07:30am 12.6 8.0 9.6 82 1.5 NNE 24 28 13 15 1017.0 - 0.0
29/07:00am 12.7 8.5 9.6 81 1.6 NNE 22 30 12 16 1017.1 - 0.0
29/06:30am 12.3 8.7 10.0 86 1.2 NNE 19 24 10 13 1017.1 - 0.0
29/06:00am 11.6 8.9 10.3 92 0.7 NNE 15 22 8 12 1017.0 1017.0 0.0
29/05:30am 11.8 8.3 10.1 89 0.9 NNE 19 24 10 13 1017.1 - 0.0
29/05:00am 11.6 8.5 10.4 92 0.6 NNE 17 20 9 11 1017.2 - 0.0
29/04:30am 12.4 10.2 10.9 90 0.8 N 13 19 7 10 1017.2 - 0.0
29/04:00am 12.5 9.7 11.2 92 0.7 NNE 17 20 9 11 1017.3 - 0.0
29/03:30am 12.8 10.5 11.7 93 0.6 NNE 15 17 8 9 1017.5 - 0.0
29/03:00am 13.6 11.1 12.3 92 0.7 NNE 17 19 9 10 1017.6 1017.7 0.0
29/02:30am 14.3 12.4 13.0 92 0.7 NNE 15 19 8 10 1017.7 - 0.0
29/02:00am 14.6 12.4 13.3 92 0.7 NNE 17 20 9 11 1018.1 - 0.0
29/01:30am 14.3 12.5 13.2 93 0.6 NNE 15 17 8 9 1018.4 - 0.0
29/01:00am 15.1 13.0 13.5 90 0.9 NNE 17 20 9 11 1018.5 - 0.0
29/12:30am 15.8 14.2 13.8 88 1.1 N 15 19 8 10 1018.8 - 0.0
29/12:00am 15.6 14.9 14.2 91 0.8 NNE 11 13 6 7 1018.9 1019.0 0.0
 
Date/Time
WST
Temp
°C
App
Temp
°C
Dew
Point
°C
Rel
Hum
%
Delta-T
°C
Wind Press
QNH
hPa
Press
MSL
hPa
Rain since
9am
mm
Dir  Spd
km/h
Gust
km/h
Spd
kts
Gust
kts
28/11:30pm 15.2 15.1 13.8 91 0.8 NNE 7 11 4 6 1019.0 - 0.0
28/11:00pm 15.4 14.7 14.2 92 0.7 NNE 11 13 6 7 1019.2 - 0.0
28/10:30pm 16.0 15.3 14.3 90 1.0 NNE 11 13 6 7 1019.4 - 0.0
28/10:00pm 16.0 15.8 14.6 91 0.8 NNE 9 13 5 7 1019.6 - 0.0
28/09:30pm 16.1 16.9 14.7 91 0.8 NW 4 7 2 4 1020.2 - 0.0
28/09:00pm 16.0 15.9 15.0 94 0.6 N 9 13 5 7 1020.1 1020.2 0.0
28/08:30pm 16.2 15.7 14.8 91 0.8 SE 11 13 6 7 1019.9 - 0.0
28/08:00pm 16.2 16.0 14.8 91 0.8 N 9 13 5 7 1020.5 - 0.0
28/07:30pm 16.4 17.1 14.5 88 1.1 E 4 9 2 5 1020.1 - 0.0
28/07:00pm 16.4 17.7 14.0 86 1.4 CALM 0 6 0 3 1020.1 - 0.0
28/06:30pm 16.6 16.5 13.8 83 1.6 E 7 9 4 5 1019.5 - 0.0
28/06:00pm 18.2 18.3 13.9 76 2.5 W 6 7 3 4 1019.4 1019.5 0.0
28/05:30pm 18.7 17.9 13.0 69 3.2 NW 9 13 5 7 1019.4 - 0.0
28/05:00pm 19.1 17.6 11.9 63 4.0 NW 11 15 6 8 1019.2 - 0.0
28/04:30pm 19.9 18.1 10.7 55 5.0 W 11 15 6 8 1019.0 - 0.0
28/04:00pm 22.0 20.1 7.5 39 7.5 WNW 7 15 4 8 1018.6 - 0.0
28/03:30pm 22.6 20.3 7.4 37 7.9 WNW 9 11 5 6 1018.6 - 0.0
28/03:00pm 22.2 20.0 6.2 35 8.1 W 7 9 4 5 1018.6 1018.7 0.0
28/02:30pm 21.9 22.1 10.4 48 6.3 CALM 0 0 0 0 1018.4 - 0.0
28/02:00pm 21.4 21.0 12.3 56 5.1 ENE 6 11 3 6 1018.5 - 0.0
28/01:30pm 21.9 21.3 10.4 48 6.3 ESE 4 7 2 4 1018.7 - 0.0
28/01:00pm 21.4 20.0 8.7 44 6.7 N 6 7 3 4 1019.2 - 0.0
28/12:30pm 20.6 18.2 10.0 50 5.7 N 13 15 7 8 1019.7 - 0.0
28/12:00pm 19.6 17.6 11.6 60 4.4 N 13 15 7 8 1020.3 1020.4 0.0
28/11:30am 18.8 16.4 11.5 62 4.0 N 15 24 8 13 1020.5 - 0.0
28/11:00am 17.4 13.8 9.8 61 4.0 NNE 19 24 10 13 1021.0 - 0.0
28/10:30am 16.0 11.1 8.6 61 3.8 NNE 24 30 13 16 1021.0 - 0.0
28/10:00am 15.5 10.1 8.2 62 3.7 NNE 26 33 14 18 1021.4 - 0.0
28/09:30am 13.8 8.7 7.7 66 3.0 NNE 24 32 13 17 1021.6 - 0.0
28/09:00am 12.9 8.7 7.6 70 2.6 NNE 19 28 10 15 1021.8 1021.9 0.0
28/08:30am 12.0 7.6 7.2 72 2.3 NNE 20 28 11 15 1021.5 - 0.0
28/08:00am 11.0 6.1 7.0 76 1.9 NNE 22 28 12 15 1021.6 - 0.0
28/07:30am 9.5 5.0 6.8 83 1.3 NE 20 22 11 12 1021.3 - 0.0
28/07:00am 9.0 4.4 6.6 85 1.1 NE 20 22 11 12 1021.1 - 0.0
28/06:30am 9.1 6.7 7.2 88 0.9 ENE 9 17 5 9 1021.0 - 0.0
28/06:00am 9.3 6.1 7.0 85 1.1 NE 13 17 7 9 1020.6 1020.7 0.0
28/05:30am 9.6 6.8 7.1 84 1.2 NE 11 17 6 9 1020.3 - 0.0
28/05:00am 10.7 8.7 7.0 78 1.8 S 7 11 4 6 1020.3 - 0.0
28/04:30am 10.6 8.7 7.7 82 1.4 ENE 7 11 4 6 1020.0 - 0.0
28/04:00am 10.5 7.5 7.6 82 1.4 ENE 13 17 7 9 1019.7 - 0.0
28/03:30am 10.3 6.5 7.6 83 1.3 NE 17 20 9 11 1020.2 - 0.0
28/03:00am 10.1 7.1 7.8 86 1.1 NNE 13 17 7 9 1020.5 1020.6 0.0
28/02:30am 9.9 7.7 7.7 86 1.1 ENE 9 11 5 6 1021.0 - 0.0
28/02:00am 10.0 7.5 8.0 87 1.0 NE 11 15 6 8 1021.0 - 0.0
28/01:30am 11.0 7.4 8.4 84 1.3 NE 17 20 9 11 1020.6 - 0.0
28/01:00am 11.0 7.7 8.1 82 1.4 NNE 15 17 8 9 1021.2 - 0.0
28/12:30am 9.4 7.8 8.2 92 0.6 ESE 6 6 3 3 1021.6 - 0.0
28/12:00am 9.9 8.4 8.5 91 0.7 SE 6 7 3 4 1021.9 1022.0 0.0
 
Date/Time
WST
Temp
°C
App
Temp
°C
Dew
Point
°C
Rel
Hum
%
Delta-T
°C
Wind Press
QNH
hPa
Press
MSL
hPa
Rain since
9am
mm
Dir  Spd
km/h
Gust
km/h
Spd
kts
Gust
kts
27/11:30pm 9.7 8.2 8.5 92 0.6 S 6 9 3 5 1022.4 - 0.0
27/11:00pm 10.1 7.8 8.9 92 0.6 E 11 13 6 7 1022.4 - 0.0
27/10:30pm 10.9 9.0 8.9 87 1.0 SSE 9 13 5 7 1022.6 - 0.0
27/10:00pm 10.2 8.8 9.0 92 0.6 E 6 11 3 6 1022.3 - 0.0
27/09:30pm 10.3 8.0 9.1 92 0.6 E 11 13 6 7 1022.2 - 0.0
27/09:00pm 10.7 9.3 9.5 92 0.6 SE 7 9 4 5 1022.6 1022.7 0.0
27/08:30pm 10.8 8.6 9.2 90 0.8 ESE 11 13 6 7 1022.1 - 0.0
27/08:00pm 11.9 8.9 9.3 84 1.3 SW 15 17 8 9 1022.1 - 0.0
27/07:30pm 12.2 12.0 10.5 89 0.9 E 2 7 1 4 1021.3 - 0.0
27/07:00pm 12.9 10.5 10.2 84 1.4 SSE 13 13 7 7 1021.0 - 0.0
27/06:30pm 13.9 12.0 10.5 80 1.8 S 11 11 6 6 1021.0 - 0.0
27/06:00pm 15.3 13.8 10.6 73 2.5 S 9 11 5 6 1020.8 1020.9 0.0
27/05:30pm 16.2 15.5 12.0 76 2.3 ESE 7 9 4 5 1020.9 - 0.0
27/05:00pm 17.1 16.2 12.6 75 2.5 SSE 9 11 5 6 1021.1 - 0.0
27/04:30pm 17.4 16.4 12.3 72 2.8 SE 9 13 5 7 1021.0 - 0.0
27/04:00pm 18.2 17.8 12.9 71 3.0 ENE 7 11 4 6 1021.2 - 0.0
27/03:30pm 18.5 17.1 10.9 61 4.1 ENE 9 11 5 6 1021.3 - 0.0

Other Formats:

Comma delimited format used in spreadsheet applications
http://www.bom.gov.au/fwo/IDW60801/IDW60801.94403.axf

JavaScript Object Notation format (JSON) in row-major order
http://www.bom.gov.au/fwo/IDW60801/IDW60801.94403.json